Year,Month,Day,Hour,Minute,Value (Times are PST for temperature in C)
2015,02,18,00,00,3.40
2015,02,18,00,01,3.40
2015,02,18,00,02,3.40
2015,02,18,00,03,3.40
2015,02,18,00,04,3.40
2015,02,18,00,05,3.40
2015,02,18,00,06,3.40
2015,02,18,00,07,3.40
2015,02,18,00,08,3.40
2015,02,18,00,09,3.40
2015,02,18,00,10,3.40
2015,02,18,00,11,3.40
2015,02,18,00,12,3.40
2015,02,18,00,13,3.40
2015,02,18,00,14,3.40
2015,02,18,00,15,3.40
2015,02,18,00,16,3.40
2015,02,18,00,17,3.30
2015,02,18,00,18,3.30
2015,02,18,00,19,3.30
2015,02,18,00,20,3.30
2015,02,18,00,21,3.30
2015,02,18,00,22,3.30
2015,02,18,00,23,3.30
2015,02,18,00,24,3.30
2015,02,18,00,25,3.30
2015,02,18,00,26,3.30
2015,02,18,00,27,3.30
2015,02,18,00,28,3.30
2015,02,18,00,29,3.30
2015,02,18,00,30,3.30
2015,02,18,00,31,3.30
2015,02,18,00,32,3.30
2015,02,18,00,33,3.30
2015,02,18,00,34,3.30
2015,02,18,00,35,3.30
2015,02,18,00,36,3.30
2015,02,18,00,37,3.30
2015,02,18,00,38,3.30
2015,02,18,00,39,3.30
2015,02,18,00,40,3.30
2015,02,18,00,41,3.30
2015,02,18,00,42,3.20
2015,02,18,00,43,3.20
2015,02,18,00,44,3.20
2015,02,18,00,45,3.20
2015,02,18,00,46,3.20
2015,02,18,00,47,3.20
2015,02,18,00,48,3.20
2015,02,18,00,49,3.20
2015,02,18,00,50,3.20
2015,02,18,00,51,3.20
2015,02,18,00,52,3.20
2015,02,18,00,53,3.20
2015,02,18,00,54,3.20
2015,02,18,00,55,3.20
2015,02,18,00,56,3.20
2015,02,18,00,57,3.20
2015,02,18,00,58,3.20
2015,02,18,00,59,3.20
2015,02,18,01,00,3.20
2015,02,18,01,01,3.20
2015,02,18,01,02,3.10
2015,02,18,01,03,3.10
2015,02,18,01,04,3.10
2015,02,18,01,05,3.10
2015,02,18,01,06,3.10
2015,02,18,01,07,3.10
2015,02,18,01,08,3.00
2015,02,18,01,09,3.00
2015,02,18,01,10,3.00
2015,02,18,01,11,3.00
2015,02,18,01,12,3.00
2015,02,18,01,13,3.00
2015,02,18,01,14,3.00
2015,02,18,01,15,2.90
2015,02,18,01,16,2.90
2015,02,18,01,17,2.90
2015,02,18,01,18,2.90
2015,02,18,01,19,2.90
2015,02,18,01,20,2.90
2015,02,18,01,21,2.90
2015,02,18,01,22,2.90
2015,02,18,01,23,2.90
2015,02,18,01,24,2.90
2015,02,18,01,25,2.90
2015,02,18,01,26,2.90
2015,02,18,01,27,2.90
2015,02,18,01,28,2.90
2015,02,18,01,29,2.90
2015,02,18,01,30,2.90
2015,02,18,01,31,2.90
2015,02,18,01,32,2.90
2015,02,18,01,33,2.90
2015,02,18,01,34,2.90
2015,02,18,01,35,2.90
2015,02,18,01,36,2.90
2015,02,18,01,37,2.90
2015,02,18,01,38,2.90
2015,02,18,01,39,2.90
2015,02,18,01,40,2.80
2015,02,18,01,41,2.80
2015,02,18,01,42,2.80
2015,02,18,01,43,2.80
2015,02,18,01,44,2.80
2015,02,18,01,45,2.80
2015,02,18,01,46,2.80
2015,02,18,01,47,2.80
2015,02,18,01,48,2.80
2015,02,18,01,49,2.80
2015,02,18,01,50,2.80
2015,02,18,01,51,2.90
2015,02,18,01,52,2.90
2015,02,18,01,53,2.90
2015,02,18,01,54,2.80
2015,02,18,01,55,2.80
2015,02,18,01,56,2.90
2015,02,18,01,57,2.90
2015,02,18,01,58,2.90
2015,02,18,01,59,2.90
2015,02,18,02,00,2.90
2015,02,18,02,01,2.90
2015,02,18,02,02,2.90
2015,02,18,02,03,2.90
2015,02,18,02,04,2.90
2015,02,18,02,05,2.90
2015,02,18,02,06,2.90
2015,02,18,02,07,2.90
2015,02,18,02,08,2.90
2015,02,18,02,09,2.90
2015,02,18,02,10,2.90
2015,02,18,02,11,2.90
2015,02,18,02,12,2.90
2015,02,18,02,13,2.90
2015,02,18,02,14,2.90
2015,02,18,02,15,2.90
2015,02,18,02,16,2.90
2015,02,18,02,17,2.90
2015,02,18,02,18,2.90
2015,02,18,02,19,2.90
2015,02,18,02,20,2.90
2015,02,18,02,21,2.90
2015,02,18,02,22,2.90
2015,02,18,02,23,2.90
2015,02,18,02,24,2.90
2015,02,18,02,25,2.90
2015,02,18,02,26,2.90
2015,02,18,02,27,2.80
2015,02,18,02,28,2.80
2015,02,18,02,29,2.80
2015,02,18,02,30,2.80
2015,02,18,02,31,2.80
2015,02,18,02,32,2.80
2015,02,18,02,33,2.80
2015,02,18,02,34,2.80
2015,02,18,02,35,2.80
2015,02,18,02,36,2.80
2015,02,18,02,37,2.80
2015,02,18,02,38,2.80
2015,02,18,02,39,2.80
2015,02,18,02,40,2.80
2015,02,18,02,41,2.80
2015,02,18,02,42,2.80
2015,02,18,02,43,2.80
2015,02,18,02,44,2.80
2015,02,18,02,45,2.80
2015,02,18,02,46,2.80
2015,02,18,02,47,2.80
2015,02,18,02,48,2.80
2015,02,18,02,49,2.80
2015,02,18,02,50,2.80
2015,02,18,02,51,2.80
2015,02,18,02,52,2.80
2015,02,18,02,53,2.80
2015,02,18,02,54,2.80
2015,02,18,02,55,2.80
2015,02,18,02,56,2.80
2015,02,18,02,57,2.80
2015,02,18,02,58,2.70
2015,02,18,02,59,2.70
2015,02,18,03,00,2.70
2015,02,18,03,01,2.70
2015,02,18,03,02,2.70
2015,02,18,03,03,2.70
2015,02,18,03,04,2.70
2015,02,18,03,05,2.70
2015,02,18,03,06,2.70
2015,02,18,03,07,2.70
2015,02,18,03,08,2.70
2015,02,18,03,09,2.70
2015,02,18,03,10,2.70
2015,02,18,03,11,2.70
2015,02,18,03,12,2.70
2015,02,18,03,13,2.70
2015,02,18,03,14,2.70
2015,02,18,03,15,2.70
2015,02,18,03,16,2.70
2015,02,18,03,17,2.70
2015,02,18,03,18,2.70
2015,02,18,03,19,2.70
2015,02,18,03,20,2.70
2015,02,18,03,21,2.70
2015,02,18,03,22,2.70
2015,02,18,03,23,2.70
2015,02,18,03,24,2.70
2015,02,18,03,25,2.70
2015,02,18,03,26,2.70
2015,02,18,03,27,2.70
2015,02,18,03,28,2.70
2015,02,18,03,29,2.70
2015,02,18,03,30,2.70
2015,02,18,03,31,2.70
2015,02,18,03,32,2.70
2015,02,18,03,33,2.70
2015,02,18,03,34,2.70
2015,02,18,03,35,2.70
2015,02,18,03,36,2.70
2015,02,18,03,37,2.70
2015,02,18,03,38,2.70
2015,02,18,03,39,2.70
2015,02,18,03,40,2.70
2015,02,18,03,41,2.70
2015,02,18,03,42,2.70
2015,02,18,03,43,2.70
2015,02,18,03,44,2.70
2015,02,18,03,45,2.70
2015,02,18,03,46,2.70
2015,02,18,03,47,2.70
2015,02,18,03,48,2.70
2015,02,18,03,49,2.70
2015,02,18,03,50,2.70
2015,02,18,03,51,2.70
2015,02,18,03,52,2.70
2015,02,18,03,53,2.70
2015,02,18,03,54,2.70
2015,02,18,03,55,2.70
2015,02,18,03,56,2.70
2015,02,18,03,57,2.70
2015,02,18,03,58,2.70
2015,02,18,03,59,2.70
2015,02,18,04,00,2.70
2015,02,18,04,01,2.70
2015,02,18,04,02,2.70
2015,02,18,04,03,2.70
2015,02,18,04,04,2.70
2015,02,18,04,05,2.70
2015,02,18,04,06,2.70
2015,02,18,04,07,2.70
2015,02,18,04,08,2.70
2015,02,18,04,09,2.70
2015,02,18,04,10,2.70
2015,02,18,04,11,2.70
2015,02,18,04,12,2.70
2015,02,18,04,13,2.70
2015,02,18,04,14,2.70
2015,02,18,04,15,2.70
2015,02,18,04,16,2.70
2015,02,18,04,17,2.70
2015,02,18,04,18,2.70
2015,02,18,04,19,2.70
2015,02,18,04,20,2.70
2015,02,18,04,21,2.70
2015,02,18,04,22,2.70
2015,02,18,04,23,2.70
2015,02,18,04,24,2.70
2015,02,18,04,25,2.70
2015,02,18,04,26,2.70
2015,02,18,04,27,2.70
2015,02,18,04,28,2.70
2015,02,18,04,29,2.70
2015,02,18,04,30,2.70
2015,02,18,04,31,2.70
2015,02,18,04,32,2.70
2015,02,18,04,33,2.70
2015,02,18,04,34,2.70
2015,02,18,04,35,2.70
2015,02,18,04,36,2.70
2015,02,18,04,37,2.70
2015,02,18,04,38,2.70
2015,02,18,04,39,2.70
2015,02,18,04,40,2.70
2015,02,18,04,41,2.70
2015,02,18,04,42,2.70
2015,02,18,04,43,2.70
2015,02,18,04,44,2.70
2015,02,18,04,45,2.70
2015,02,18,04,46,2.70
2015,02,18,04,47,2.70
2015,02,18,04,48,2.70
2015,02,18,04,49,2.70
2015,02,18,04,50,2.60
2015,02,18,04,51,2.60
2015,02,18,04,52,2.60
2015,02,18,04,53,2.60
2015,02,18,04,54,2.60
2015,02,18,04,55,2.60
2015,02,18,04,56,2.50
2015,02,18,04,57,2.60
2015,02,18,04,58,2.60
2015,02,18,04,59,2.50
2015,02,18,05,00,2.60
2015,02,18,05,01,2.60
2015,02,18,05,02,2.60
2015,02,18,05,03,2.60
2015,02,18,05,04,2.60
2015,02,18,05,05,2.60
2015,02,18,05,06,2.60
2015,02,18,05,07,2.60
2015,02,18,05,08,2.60
2015,02,18,05,09,2.60
2015,02,18,05,10,2.60
2015,02,18,05,11,2.60
2015,02,18,05,12,2.60
2015,02,18,05,13,2.60
2015,02,18,05,14,2.60
2015,02,18,05,15,2.60
2015,02,18,05,16,2.60
2015,02,18,05,17,2.60
2015,02,18,05,18,2.60
2015,02,18,05,19,2.60
2015,02,18,05,20,2.60
2015,02,18,05,21,2.60
2015,02,18,05,22,2.70
2015,02,18,05,23,2.70
2015,02,18,05,24,2.70
2015,02,18,05,25,2.70
2015,02,18,05,26,2.70
2015,02,18,05,27,2.70
2015,02,18,05,28,2.80
2015,02,18,05,29,2.80
2015,02,18,05,30,2.80
2015,02,18,05,31,2.80
2015,02,18,05,32,2.70
2015,02,18,05,33,2.70
2015,02,18,05,34,2.70
2015,02,18,05,35,2.70
2015,02,18,05,36,2.70
2015,02,18,05,37,2.70
2015,02,18,05,38,2.70
2015,02,18,05,39,2.70
2015,02,18,05,40,2.70
2015,02,18,05,41,2.70
2015,02,18,05,42,2.70
2015,02,18,05,43,2.70
2015,02,18,05,44,2.70
2015,02,18,05,45,2.70
2015,02,18,05,46,2.70
2015,02,18,05,47,2.70
2015,02,18,05,48,2.70
2015,02,18,05,49,2.70
2015,02,18,05,50,2.70
2015,02,18,05,51,2.70
2015,02,18,05,52,2.70
2015,02,18,05,53,2.70
2015,02,18,05,54,2.70
2015,02,18,05,55,2.70
2015,02,18,05,56,2.70
2015,02,18,05,57,2.70
2015,02,18,05,58,2.70
2015,02,18,05,59,2.70
2015,02,18,06,00,2.70
2015,02,18,06,01,2.70
2015,02,18,06,02,2.70
2015,02,18,06,03,2.70
2015,02,18,06,04,2.70
2015,02,18,06,05,2.70
2015,02,18,06,06,2.80
2015,02,18,06,07,2.80
2015,02,18,06,08,2.80
2015,02,18,06,09,2.80
2015,02,18,06,10,2.80
2015,02,18,06,11,2.80
2015,02,18,06,12,2.80
2015,02,18,06,13,2.80
2015,02,18,06,14,2.80
2015,02,18,06,15,2.80
2015,02,18,06,16,2.80
2015,02,18,06,17,2.80
2015,02,18,06,18,2.80
2015,02,18,06,19,2.80
2015,02,18,06,20,2.80
2015,02,18,06,21,2.80
2015,02,18,06,22,2.80
2015,02,18,06,23,2.80
2015,02,18,06,24,2.80
2015,02,18,06,25,2.80
2015,02,18,06,26,2.80
2015,02,18,06,27,2.80
2015,02,18,06,28,2.80
2015,02,18,06,29,2.80
2015,02,18,06,30,2.80
2015,02,18,06,31,2.80
2015,02,18,06,32,2.80
2015,02,18,06,33,2.80
2015,02,18,06,34,2.80
2015,02,18,06,35,2.80
2015,02,18,06,36,2.80
2015,02,18,06,37,2.80
2015,02,18,06,38,2.80
2015,02,18,06,39,2.80
2015,02,18,06,40,2.80
2015,02,18,06,41,2.80
2015,02,18,06,42,2.80
2015,02,18,06,43,2.80
2015,02,18,06,44,2.80
2015,02,18,06,45,2.80
2015,02,18,06,46,2.80
2015,02,18,06,47,2.80
2015,02,18,06,48,2.80
2015,02,18,06,49,2.80
2015,02,18,06,50,2.80
2015,02,18,06,51,2.80
2015,02,18,06,52,2.80
2015,02,18,06,53,2.80
2015,02,18,06,54,2.80
2015,02,18,06,55,2.80
2015,02,18,06,56,2.80
2015,02,18,06,57,2.80
2015,02,18,06,58,2.80
2015,02,18,06,59,2.80
2015,02,18,07,00,2.80
2015,02,18,07,01,2.80
2015,02,18,07,02,2.80
2015,02,18,07,03,2.80
2015,02,18,07,04,2.80
2015,02,18,07,05,2.80
2015,02,18,07,06,2.80
2015,02,18,07,07,2.80
2015,02,18,07,08,2.80
2015,02,18,07,09,2.80
2015,02,18,07,10,2.70
2015,02,18,07,11,2.70
2015,02,18,07,12,2.70
2015,02,18,07,13,2.70
2015,02,18,07,14,2.70
2015,02,18,07,15,2.70
2015,02,18,07,16,2.70
2015,02,18,07,17,2.70
2015,02,18,07,18,2.70
2015,02,18,07,19,2.70
2015,02,18,07,20,2.70
2015,02,18,07,21,2.70
2015,02,18,07,22,2.70
2015,02,18,07,23,2.70
2015,02,18,07,24,2.70
2015,02,18,07,25,2.70
2015,02,18,07,26,2.70
2015,02,18,07,27,2.70
2015,02,18,07,28,2.70
2015,02,18,07,29,2.70
2015,02,18,07,30,2.70
2015,02,18,07,31,2.70
2015,02,18,07,32,2.70
2015,02,18,07,33,2.70
2015,02,18,07,34,2.70
2015,02,18,07,35,2.70
2015,02,18,07,36,2.70
2015,02,18,07,37,2.70
2015,02,18,07,38,2.70
2015,02,18,07,39,2.70
2015,02,18,07,40,2.70
2015,02,18,07,41,2.70
2015,02,18,07,42,2.70
2015,02,18,07,43,2.70
2015,02,18,07,44,2.70
2015,02,18,07,45,2.70
2015,02,18,07,46,2.70
2015,02,18,07,47,2.70
2015,02,18,07,48,2.70
2015,02,18,07,49,2.70
2015,02,18,07,50,2.70
2015,02,18,07,51,2.70
2015,02,18,07,52,2.70
2015,02,18,07,53,2.70
2015,02,18,07,54,2.70
2015,02,18,07,55,2.70
2015,02,18,07,56,2.60
2015,02,18,07,57,2.60
2015,02,18,07,58,2.60
2015,02,18,07,59,2.60
2015,02,18,08,00,2.60
2015,02,18,08,01,2.60
2015,02,18,08,02,2.60
2015,02,18,08,03,2.60
2015,02,18,08,04,2.60
2015,02,18,08,05,2.70
2015,02,18,08,06,2.70
2015,02,18,08,07,2.70
2015,02,18,08,08,2.70
2015,02,18,08,09,2.70
2015,02,18,08,10,2.70
2015,02,18,08,11,2.70
2015,02,18,08,12,2.70
2015,02,18,08,13,2.70
2015,02,18,08,14,2.70
2015,02,18,08,15,2.70
2015,02,18,08,16,2.70
2015,02,18,08,17,2.70
2015,02,18,08,18,2.80
2015,02,18,08,19,2.80
2015,02,18,08,20,2.80
2015,02,18,08,21,2.80
2015,02,18,08,22,2.90
2015,02,18,08,23,2.90
2015,02,18,08,24,3.00
2015,02,18,08,25,3.00
2015,02,18,08,26,3.10
2015,02,18,08,27,3.10
2015,02,18,08,28,3.20
2015,02,18,08,29,3.20
2015,02,18,08,30,3.30
2015,02,18,08,31,3.30
2015,02,18,08,32,3.40
2015,02,18,08,33,3.40
2015,02,18,08,34,3.40
2015,02,18,08,35,3.40
2015,02,18,08,36,3.40
2015,02,18,08,37,3.40
2015,02,18,08,38,3.40
2015,02,18,08,39,3.40
2015,02,18,08,40,3.30
2015,02,18,08,41,3.30
2015,02,18,08,42,3.40
2015,02,18,08,43,3.40
2015,02,18,08,44,3.40
2015,02,18,08,45,3.40
2015,02,18,08,46,3.40
2015,02,18,08,47,3.40
2015,02,18,08,48,3.40
2015,02,18,08,49,3.40
2015,02,18,08,50,3.50
2015,02,18,08,51,3.50
2015,02,18,08,52,3.50
2015,02,18,08,53,3.50
2015,02,18,08,54,3.60
2015,02,18,08,55,3.60
2015,02,18,08,56,3.60
2015,02,18,08,57,3.60
2015,02,18,08,58,3.60
2015,02,18,08,59,3.70
2015,02,18,09,00,3.70
2015,02,18,09,01,3.70
2015,02,18,09,02,3.80
2015,02,18,09,03,3.80
2015,02,18,09,04,3.80
2015,02,18,09,05,3.90
2015,02,18,09,06,4.00
2015,02,18,09,07,4.00
2015,02,18,09,08,4.00
2015,02,18,09,09,4.10
2015,02,18,09,10,4.10
2015,02,18,09,11,4.10
2015,02,18,09,12,4.20
2015,02,18,09,13,4.20
2015,02,18,09,14,4.30
2015,02,18,09,15,4.30
2015,02,18,09,16,4.40
2015,02,18,09,17,4.50
2015,02,18,09,18,4.60
2015,02,18,09,19,4.70
2015,02,18,09,20,4.70
2015,02,18,09,21,4.70
2015,02,18,09,22,4.80
2015,02,18,09,23,4.80
2015,02,18,09,24,4.90
2015,02,18,09,25,4.90
2015,02,18,09,26,5.00
2015,02,18,09,27,5.00
2015,02,18,09,28,5.10
2015,02,18,09,29,5.10
2015,02,18,09,30,5.20
2015,02,18,09,31,5.20
2015,02,18,09,32,5.30
2015,02,18,09,33,5.30
2015,02,18,09,34,5.40
2015,02,18,09,35,5.40
2015,02,18,09,36,5.40
2015,02,18,09,37,5.50
2015,02,18,09,38,5.60
2015,02,18,09,39,5.60
2015,02,18,09,40,5.70
2015,02,18,09,41,5.70
2015,02,18,09,42,5.80
2015,02,18,09,43,5.80
2015,02,18,09,44,5.90
2015,02,18,09,45,5.90
2015,02,18,09,46,5.90
2015,02,18,09,47,6.00
2015,02,18,09,48,6.00
2015,02,18,09,49,6.10
2015,02,18,09,50,6.10
2015,02,18,09,51,6.10
2015,02,18,09,52,6.20
2015,02,18,09,53,6.20
2015,02,18,09,54,6.30
2015,02,18,09,55,6.30
2015,02,18,09,56,6.40
2015,02,18,09,57,6.40
2015,02,18,09,58,6.50
2015,02,18,09,59,6.50
2015,02,18,10,00,6.60
2015,02,18,10,01,6.70
2015,02,18,10,02,6.70
2015,02,18,10,03,6.80
2015,02,18,10,04,6.90
2015,02,18,10,05,6.90
2015,02,18,10,06,7.00
2015,02,18,10,07,7.00
2015,02,18,10,08,7.10
2015,02,18,10,09,7.20
2015,02,18,10,10,7.20
2015,02,18,10,11,7.20
2015,02,18,10,12,7.30
2015,02,18,10,13,7.30
2015,02,18,10,14,7.30
2015,02,18,10,15,7.40
2015,02,18,10,16,7.40
2015,02,18,10,17,7.40
2015,02,18,10,18,7.50
2015,02,18,10,19,7.50
2015,02,18,10,20,7.60
2015,02,18,10,21,7.60
2015,02,18,10,22,7.60
2015,02,18,10,23,7.60
2015,02,18,10,24,7.70
2015,02,18,10,25,7.70
2015,02,18,10,26,7.70
2015,02,18,10,27,7.70
2015,02,18,10,28,7.70
2015,02,18,10,29,7.70
2015,02,18,10,30,7.70
2015,02,18,10,31,7.70
2015,02,18,10,32,7.70
2015,02,18,10,33,7.70
2015,02,18,10,34,7.80
2015,02,18,10,35,7.80
2015,02,18,10,36,7.80
2015,02,18,10,37,7.80
2015,02,18,10,38,7.80
2015,02,18,10,39,7.80
2015,02,18,10,40,7.80
2015,02,18,10,41,7.80
2015,02,18,10,42,7.90
2015,02,18,10,43,7.90
2015,02,18,10,44,7.90
2015,02,18,10,45,7.90
2015,02,18,10,46,7.90
2015,02,18,10,47,7.90
2015,02,18,10,48,7.90
2015,02,18,10,49,7.90
2015,02,18,10,50,7.90
2015,02,18,10,51,7.90
2015,02,18,10,52,7.90
2015,02,18,10,53,7.90
2015,02,18,10,54,7.90
2015,02,18,10,55,7.90
2015,02,18,10,56,7.90
2015,02,18,10,57,7.90
2015,02,18,10,58,7.90
2015,02,18,10,59,7.90
2015,02,18,11,00,7.90
2015,02,18,11,01,8.00
2015,02,18,11,02,8.00
2015,02,18,11,03,8.10
2015,02,18,11,04,8.10
2015,02,18,11,05,8.10
2015,02,18,11,06,8.10
2015,02,18,11,07,8.20
2015,02,18,11,08,8.20
2015,02,18,11,09,8.20
2015,02,18,11,10,8.20
2015,02,18,11,11,8.20
2015,02,18,11,12,8.20
2015,02,18,11,13,8.20
2015,02,18,11,14,8.20
2015,02,18,11,15,8.10
2015,02,18,11,16,8.10
2015,02,18,11,17,8.10
2015,02,18,11,18,8.10
2015,02,18,11,19,8.10
2015,02,18,11,20,8.10
2015,02,18,11,21,8.10
2015,02,18,11,22,8.10
2015,02,18,11,23,8.20
2015,02,18,11,24,8.20
2015,02,18,11,25,8.20
2015,02,18,11,26,8.20
2015,02,18,11,27,8.20
2015,02,18,11,28,8.20
2015,02,18,11,29,8.30
2015,02,18,11,30,8.30
2015,02,18,11,31,8.30
2015,02,18,11,32,8.30
2015,02,18,11,33,8.30
2015,02,18,11,34,8.40
2015,02,18,11,35,8.40
2015,02,18,11,36,8.40
2015,02,18,11,37,8.50
2015,02,18,11,38,8.50
2015,02,18,11,39,8.60
2015,02,18,11,40,8.60
2015,02,18,11,41,8.60
2015,02,18,11,42,8.60
2015,02,18,11,43,8.70
2015,02,18,11,44,8.70
2015,02,18,11,45,8.80
2015,02,18,11,46,8.80
2015,02,18,11,47,8.80
2015,02,18,11,48,8.80
2015,02,18,11,49,8.90
2015,02,18,11,50,8.90
2015,02,18,11,51,8.90
2015,02,18,11,52,9.00
2015,02,18,11,53,9.00
2015,02,18,11,54,9.00
2015,02,18,11,55,9.10
2015,02,18,11,56,9.10
2015,02,18,11,57,9.10
2015,02,18,11,58,9.20
2015,02,18,11,59,9.20
2015,02,18,12,00,9.20
2015,02,18,12,01,9.30
2015,02,18,12,02,9.30
2015,02,18,12,03,9.40
2015,02,18,12,04,9.50
2015,02,18,12,05,9.50
2015,02,18,12,06,9.60
2015,02,18,12,07,9.60
2015,02,18,12,08,9.60
2015,02,18,12,09,9.70
2015,02,18,12,10,9.70
2015,02,18,12,11,9.70
2015,02,18,12,12,9.80
2015,02,18,12,13,9.80
2015,02,18,12,14,9.80
2015,02,18,12,15,9.90
2015,02,18,12,16,9.90
2015,02,18,12,17,9.90
2015,02,18,12,18,10.00
2015,02,18,12,19,10.00
2015,02,18,12,20,10.10
2015,02,18,12,21,10.10
2015,02,18,12,22,10.10
2015,02,18,12,23,10.20
2015,02,18,12,24,10.20
2015,02,18,12,25,10.20
2015,02,18,12,26,10.20
2015,02,18,12,27,10.20
2015,02,18,12,28,10.30
2015,02,18,12,29,10.30
2015,02,18,12,30,10.30
2015,02,18,12,31,10.30
2015,02,18,12,32,10.40
2015,02,18,12,33,10.40
2015,02,18,12,34,10.50
2015,02,18,12,35,10.50
2015,02,18,12,36,10.60
2015,02,18,12,37,10.60
2015,02,18,12,38,10.70
2015,02,18,12,39,10.70
2015,02,18,12,40,10.70
2015,02,18,12,41,10.70
2015,02,18,12,42,10.80
2015,02,18,12,43,10.80
2015,02,18,12,44,10.90
2015,02,18,12,45,10.90
2015,02,18,12,46,11.00
2015,02,18,12,47,11.00
2015,02,18,12,48,11.00
2015,02,18,12,49,11.10
2015,02,18,12,50,11.10
2015,02,18,12,51,11.10
2015,02,18,12,52,11.20
2015,02,18,12,53,11.20
2015,02,18,12,54,11.30
2015,02,18,12,55,11.30
2015,02,18,12,56,11.30
2015,02,18,12,57,11.30
2015,02,18,12,58,11.30
2015,02,18,12,59,11.30
2015,02,18,13,00,11.30
2015,02,18,13,01,11.30
2015,02,18,13,02,11.30
2015,02,18,13,03,11.30
2015,02,18,13,04,11.30
2015,02,18,13,05,11.30
2015,02,18,13,06,11.30
2015,02,18,13,07,11.20
2015,02,18,13,08,11.20
2015,02,18,13,09,11.20
2015,02,18,13,10,11.10
2015,02,18,13,11,11.10
2015,02,18,13,12,11.10
2015,02,18,13,13,11.10
2015,02,18,13,14,11.10
2015,02,18,13,15,11.10
2015,02,18,13,16,11.10
2015,02,18,13,17,11.00
2015,02,18,13,18,11.00
2015,02,18,13,19,11.00
2015,02,18,13,20,10.90
2015,02,18,13,21,10.90
2015,02,18,13,22,10.90
2015,02,18,13,23,10.90
2015,02,18,13,24,10.90
2015,02,18,13,25,11.00
2015,02,18,13,26,11.00
2015,02,18,13,27,11.00
2015,02,18,13,28,11.10
2015,02,18,13,29,11.10
2015,02,18,13,30,11.10
2015,02,18,13,31,11.10
2015,02,18,13,32,11.10
2015,02,18,13,33,11.10
2015,02,18,13,34,11.20
2015,02,18,13,35,11.20
2015,02,18,13,36,11.20
2015,02,18,13,37,11.30
2015,02,18,13,38,11.40
2015,02,18,13,39,11.50
2015,02,18,13,40,11.60
2015,02,18,13,41,11.60
2015,02,18,13,42,11.70
2015,02,18,13,43,11.80
2015,02,18,13,44,11.80
2015,02,18,13,45,11.80
2015,02,18,13,46,11.70
2015,02,18,13,47,11.70
2015,02,18,13,48,11.70
2015,02,18,13,49,11.60
2015,02,18,13,50,11.60
2015,02,18,13,51,11.60
2015,02,18,13,52,11.60
2015,02,18,13,53,11.50
2015,02,18,13,54,11.60
2015,02,18,13,55,11.60
2015,02,18,13,56,11.60
2015,02,18,13,57,11.60
2015,02,18,13,58,11.70
2015,02,18,13,59,11.70
2015,02,18,14,00,11.70
2015,02,18,14,01,11.70
2015,02,18,14,02,11.70
2015,02,18,14,03,11.70
2015,02,18,14,04,11.70
2015,02,18,14,05,11.70
2015,02,18,14,06,11.70
2015,02,18,14,07,11.70
2015,02,18,14,08,11.70
2015,02,18,14,09,11.70
2015,02,18,14,10,11.60
2015,02,18,14,11,11.60
2015,02,18,14,12,11.60
2015,02,18,14,13,11.60
2015,02,18,14,14,11.60
2015,02,18,14,15,11.60
2015,02,18,14,16,11.60
2015,02,18,14,17,11.60
2015,02,18,14,18,11.60
2015,02,18,14,19,11.60
2015,02,18,14,20,11.60
2015,02,18,14,21,11.60
2015,02,18,14,22,11.50
2015,02,18,14,23,11.50
2015,02,18,14,24,11.50
2015,02,18,14,25,11.40
2015,02,18,14,26,11.40
2015,02,18,14,27,11.40
2015,02,18,14,28,11.40
2015,02,18,14,29,11.40
2015,02,18,14,30,11.40
2015,02,18,14,31,11.40
2015,02,18,14,32,11.40
2015,02,18,14,33,11.50
2015,02,18,14,34,11.40
2015,02,18,14,35,11.40
2015,02,18,14,36,11.40
2015,02,18,14,37,11.40
2015,02,18,14,38,11.40
2015,02,18,14,39,11.40
2015,02,18,14,40,11.40
2015,02,18,14,41,11.50
2015,02,18,14,42,11.50
2015,02,18,14,43,11.50
2015,02,18,14,44,11.50
2015,02,18,14,45,11.60
2015,02,18,14,46,11.60
2015,02,18,14,47,11.60
2015,02,18,14,48,11.60
2015,02,18,14,49,11.60
2015,02,18,14,50,11.60
2015,02,18,14,51,11.60
2015,02,18,14,52,11.60
2015,02,18,14,53,11.60
2015,02,18,14,54,11.60
2015,02,18,14,55,11.60
2015,02,18,14,56,11.60
2015,02,18,14,57,11.60
2015,02,18,14,58,11.60
2015,02,18,14,59,11.60
2015,02,18,15,00,11.60
2015,02,18,15,01,11.60
2015,02,18,15,02,11.60
2015,02,18,15,03,11.60
2015,02,18,15,04,11.70
2015,02,18,15,05,11.70
2015,02,18,15,06,11.70
2015,02,18,15,07,11.60
2015,02,18,15,08,11.60
2015,02,18,15,09,11.60
2015,02,18,15,10,11.60
2015,02,18,15,11,11.60
2015,02,18,15,12,11.50
2015,02,18,15,13,11.50
2015,02,18,15,14,11.50
2015,02,18,15,15,11.50
2015,02,18,15,16,11.50
2015,02,18,15,17,11.50
2015,02,18,15,18,11.50
2015,02,18,15,19,11.50
2015,02,18,15,20,11.60
2015,02,18,15,21,11.60
2015,02,18,15,22,11.60
2015,02,18,15,23,11.60
2015,02,18,15,24,11.60
2015,02,18,15,25,11.70
2015,02,18,15,26,11.70
2015,02,18,15,27,11.70
2015,02,18,15,28,11.70
2015,02,18,15,29,11.70
2015,02,18,15,30,11.80
2015,02,18,15,31,11.80
2015,02,18,15,32,11.80
2015,02,18,15,33,11.80
2015,02,18,15,34,11.80
2015,02,18,15,35,11.90
2015,02,18,15,36,11.90
2015,02,18,15,37,12.00
2015,02,18,15,38,12.00
2015,02,18,15,39,12.10
2015,02,18,15,40,12.10
2015,02,18,15,41,12.20
2015,02,18,15,42,12.20
2015,02,18,15,43,12.30
2015,02,18,15,44,12.30
2015,02,18,15,45,12.40
2015,02,18,15,46,12.40
2015,02,18,15,47,12.40
2015,02,18,15,48,12.50
2015,02,18,15,49,12.50
2015,02,18,15,50,12.50
2015,02,18,15,51,12.50
2015,02,18,15,52,12.50
2015,02,18,15,53,12.50
2015,02,18,15,54,12.50
2015,02,18,15,55,12.50
2015,02,18,15,56,12.50
2015,02,18,15,57,12.50
2015,02,18,15,58,12.50
2015,02,18,15,59,12.50
2015,02,18,16,00,12.60
2015,02,18,16,01,12.60
2015,02,18,16,02,12.60
2015,02,18,16,03,12.70
2015,02,18,16,04,12.70
2015,02,18,16,05,12.70
2015,02,18,16,06,12.60
2015,02,18,16,07,12.60
2015,02,18,16,08,12.60
2015,02,18,16,09,12.60
2015,02,18,16,10,12.60
2015,02,18,16,11,12.60
2015,02,18,16,12,12.60
2015,02,18,16,13,12.50
2015,02,18,16,14,12.40
2015,02,18,16,15,12.40
2015,02,18,16,16,12.40
2015,02,18,16,17,12.40
2015,02,18,16,18,12.40
2015,02,18,16,19,12.40
2015,02,18,16,20,12.40
2015,02,18,16,21,12.40
2015,02,18,16,22,12.40
2015,02,18,16,23,12.30
2015,02,18,16,24,12.30
2015,02,18,16,25,12.20
2015,02,18,16,26,12.10
2015,02,18,16,27,12.10
2015,02,18,16,28,12.10
2015,02,18,16,29,12.10
2015,02,18,16,30,12.10
2015,02,18,16,31,12.10
2015,02,18,16,32,12.10
2015,02,18,16,33,12.10
2015,02,18,16,34,12.10
2015,02,18,16,35,12.10
2015,02,18,16,36,12.10
2015,02,18,16,37,12.10
2015,02,18,16,38,12.10
2015,02,18,16,39,12.10
2015,02,18,16,40,12.20
2015,02,18,16,41,12.20
2015,02,18,16,42,12.20
2015,02,18,16,43,12.20
2015,02,18,16,44,12.20
2015,02,18,16,45,12.20
2015,02,18,16,46,12.20
2015,02,18,16,47,12.20
2015,02,18,16,48,12.20
2015,02,18,16,49,12.30
2015,02,18,16,50,12.30
2015,02,18,16,51,12.30
2015,02,18,16,52,12.20
2015,02,18,16,53,12.20
2015,02,18,16,54,12.20
2015,02,18,16,55,12.20
2015,02,18,16,56,12.10
2015,02,18,16,57,12.10
2015,02,18,16,58,12.00
2015,02,18,16,59,12.00
2015,02,18,17,00,11.90
2015,02,18,17,01,11.90
2015,02,18,17,02,11.90
2015,02,18,17,03,11.80
2015,02,18,17,04,11.80
2015,02,18,17,05,11.80
2015,02,18,17,06,11.80
2015,02,18,17,07,11.80
2015,02,18,17,08,11.80
2015,02,18,17,09,11.80
2015,02,18,17,10,11.80
2015,02,18,17,11,11.70
2015,02,18,17,12,11.70
2015,02,18,17,13,11.70
2015,02,18,17,14,11.70
2015,02,18,17,15,11.70
2015,02,18,17,16,11.60
2015,02,18,17,17,11.60
2015,02,18,17,18,11.60
2015,02,18,17,19,11.60
2015,02,18,17,20,11.60
2015,02,18,17,21,11.50
2015,02,18,17,22,11.50
2015,02,18,17,23,11.50
2015,02,18,17,24,11.50
2015,02,18,17,25,11.50
2015,02,18,17,26,11.50
2015,02,18,17,27,11.40
2015,02,18,17,28,11.40
2015,02,18,17,29,11.40
2015,02,18,17,30,11.40
2015,02,18,17,31,11.40
2015,02,18,17,32,11.40
2015,02,18,17,33,11.40
2015,02,18,17,34,11.40
2015,02,18,17,35,11.40
2015,02,18,17,36,11.40
2015,02,18,17,37,11.40
2015,02,18,17,38,11.40
2015,02,18,17,39,11.40
2015,02,18,17,40,11.40
2015,02,18,17,41,11.30
2015,02,18,17,42,11.30
2015,02,18,17,43,11.30
2015,02,18,17,44,11.30
2015,02,18,17,45,11.30
2015,02,18,17,46,11.30
2015,02,18,17,47,11.30
2015,02,18,17,48,11.20
2015,02,18,17,49,11.20
2015,02,18,17,50,11.20
2015,02,18,17,51,11.20